User: anonymous   Login
Location: Unspecified
(0.0000°N, 0.0000°E)
Time: 07:08:00
(UTC+00:00)
Language:

Triad OI-1X - Orbit

View from above orbital plane
View from above orbital plane
View from above satellite
View from above satellite

Ground track
Ground track

The orbit data is extracted from the following two-line orbital elements,

1  6173U 72069A   19083.02055414  .00000098  00000-0  21952-4 0  9993
2  6173  89.9013 221.6061 0054909  56.5890  74.9085 14.48944424447908
Epoch (UTC): 24 March 2019 00:29:35
Eccentricity: 0.0054909
inclination: 89.9013°
perigee height: 690 km
apogee height: 768 km
right ascension of ascending node: 221.6061°
argument of perigee: 56.5890°
revolutions per day: 14.48944424
mean anomaly at epoch: 74.9085°
orbit number at epoch: 44790

The dashed part of the orbit path shows where the satellite is in the earth's shadow,  

DLR